Regional Weather Roundup
Issued by NWS Memphis, TN

Home | Current Version | Previous Version | Text Only | Print | Product List | Glossary On
Versions: 1 2 3 4 5 6 7 8 9 10 11 12 13 14 15 16 17 18 19 20 21 22 23 24 25 26 27 28 29 30 31 32 33 34 35 36 37 38 39 40 41 42 43 44 45 46 47 48 49 50
000
ASUS44 KMEG 191510
RWRMEG
MEMPHIS CWA HOURLY WEATHER ROUNDUP
NATIONAL WEATHER SERVICE MEMPHIS TN
1000 AM CDT SAT APR 19 2014

...WEST TENNESSEE...

CITY           SKY/WX    TMP DP  RH WIND       PRES   REMARKS
MEMPHIS INTL   MOSUNNY   72  49  44 N5        30.22S
NWS MEMPHIS      N/A     69 N/A N/A MISG        N/A
JACKSON        SUNNY     70  45  40 E7        30.22S
LEXINGTON      SUNNY     68  43  40 NE9       30.22R
SAVANNAH       SUNNY     69  47  45 NE9       30.21S
DYERSBURG      SUNNY     66  43  42 E6        30.24S
UNION CITY     SUNNY     64  48  55 NE6       30.23S
PARIS          SUNNY     66  45  46 NE7       30.24R


...EASTERN ARKANSAS...

CITY           SKY/WX    TMP DP  RH WIND       PRES   REMARKS
JONESBORO      SUNNY     65  47  52 E6        30.24S
WEST MEMPHIS   SUNNY     68  53  58 N3        30.22S
BATESVILLE     SUNNY     64  46  52 CALM      30.24S
NEWPORT        SUNNY     63  49  60 NW5       30.26S
WALNUT RIDGE   SUNNY     64  50  59 NE6       30.26S
BLYTHEVILLE    SUNNY     67  47  48 NE6       30.24S
SEARCY         SUNNY     66  52  60 CALM      30.25S
STUTTGART      SUNNY     66  54  63 NE6       30.24S
PINE BLUFF     SUNNY     66  54  65 CALM      30.24R
MONTICELLO     SUNNY     69  53  56 CALM      30.22R


...NORTH MISSISSIPPI...

CITY           SKY/WX    TMP DP  RH WIND       PRES   REMARKS
TUPELO         SUNNY     69  51  52 NE14      30.19S
OXFORD         SUNNY     66  48  52 NE9       30.22S
OLIVE BRANCH   MOSUNNY   68  48  49 N6        30.23R
TUNICA         SUNNY     68  52  56 N7        30.24R
CLARKSDALE       N/A     68  55  64 NW7       30.23F
CORINTH        SUNNY     68  46  45 NE9       30.21S
GRENADA        SUNNY     68  54  60 N7        30.21S
GREENWOOD      SUNNY     65  54  67 NW6       30.21F
COLUMBUS       SUNNY     67  53  60 N10       30.18S
STARKVILLE     FAIR      66  52  59 N8        30.17F
GOLDEN TRIANGL SUNNY     68  52  56 N16       30.20S


...SOUTHEAST MISSOURI...

CITY           SKY/WX    TMP DP  RH WIND       PRES   REMARKS
DONIPHAN         N/A     68  43  40 E5          N/A
WEST PLAINS    SUNNY     64  42  44 E6        30.27F
POPLAR BLUFF   SUNNY     65  45  48 E7        30.25R
CAPE GIRARDEAU SUNNY     65  47  52 NE6       30.26R


...NORTHWEST ALABAMA...

CITY           SKY/WX    TMP DP  RH WIND       PRES   REMARKS
MUSCLE SHOALS  SUNNY     69  44  40 NE8       30.19S


...MIDDLE TENNESSEE...

CITY           SKY/WX    TMP DP  RH WIND       PRES   REMARKS
NASHVILLE      MOSUNNY   68  40  35 E14G20    30.23R
CLARKSVILLE    SUNNY     66  47  50 NE9       30.24S
DICKSON        SUNNY     64  37  36 NE12      30.22F
COLUMBIA       SUNNY     68  52  56 NE12      30.20R
LEWISBURG      SUNNY     66  43  43 NE13      30.19S


...WESTERN KENTUCKY...

CITY           SKY/WX    TMP DP  RH WIND       PRES   REMARKS
PADUCAH        SUNNY     68  46  45 E8        30.25R
FORT CAMPBELL  SUNNY     68  45  42 E12       30.24S


...CENTRAL ARKANSAS...

CITY           SKY/WX    TMP DP  RH WIND       PRES   REMARKS
LITTLE ROCK    MOSUNNY   67  53  61 CALM      30.24R


SKY/WX REPORTED AS FAIR MEANS FEW OR NO CLOUDS BELOW
12 THOUSAND FEET.




USA.gov is the U.S. government's official web portal to all federal, state and local government web resources and services.